Weather History for Tuscaloosa, AL

Change the Weather History Date:

Sunday, October 14, 2012

  Actual Average Record
Temperature  
Mean Temperature 75 °F 65 °F  
Max Temperature 82 °F 78 °F 90 °F (1962)
Min Temperature 67 °F 52 °F 33 °F (1977)
Degree Days  
Heating Degree Days 0 3  
Month to date heating degree days 28 27  
Since 1 July heating degree days 29 34  
Cooling Degree Days 8    
Growing Degree Days 24 (Base 50)    
Moisture  
Dew Point 67 °F    
Average Humidity 75    
Maximum Humidity 87    
Minimum Humidity 62    
Precipitation  
Precipitation 1.08 in 0.12 in 1.08 in (2012)
Month to date precipitation 1.11 1.61  
Year to date precipitation 38.10 41.00  
Sea Level Pressure  
Sea Level Pressure 30.04 in    
Wind  
Wind Speed 8 mph (South)    
Max Wind Speed 16 mph    
Max Gust Speed 23 mph    
Visibility 8 miles    
Events Rain , Thunderstorm    
T = Trace of Precipitation, MM = Missing Value Source: NWS Daily Summary

Daily Weather History Graph

Daily Weather History Graph

Search for Another Location

Airport:

Trip Planner

Search our weather history database for the weather conditions in past years. The results will help you decide how hot, cold, wet, or windy it might be!

Date:

Astronomy

Oct. 14, 2012 Rise Set
Actual Time 6:54 AM CDT 6:17 PM CDT
Civil Twilight 6:29 AM CDT 6:42 PM CDT
Nautical Twilight 6:00 AM CDT 7:11 PM CDT
Astronomical Twilight 5:32 AM CDT 7:39 PM CDT
Moon 5:54 AM CDT (10/14) 5:38 PM CDT (10/14)
Length of Visible Light 12h 13m
Length of Day
11h 23m
Waning Crescent, 1% of the Moon is Illuminated
Oct 14
Waning Crescent
Oct 15
New
Oct 21
First Quarter
Oct 29
Full
Nov 6
Last Quarter

Hourly Weather History & Observations

Time (CDT) Temp. Heat Index Dew Point Humidity Pressure Visibility Wind Dir Wind Speed Gust Speed Precip Events Conditions
12:53 AM 73.0 °F - 64.0 °F 73% 30.13 in 10.0 mi SSE 5.8 mph - N/A   Overcast
1:53 AM 73.0 °F - 64.0 °F 73% 30.12 in 10.0 mi SE 6.9 mph - N/A   Overcast
2:53 AM 71.1 °F - 64.0 °F 78% 30.11 in 10.0 mi SE 6.9 mph - N/A   Overcast
3:53 AM 70.0 °F - 64.9 °F 84% 30.09 in 9.0 mi SE 5.8 mph - N/A   Partly Cloudy
4:53 AM 70.0 °F - 64.9 °F 84% 30.09 in 9.0 mi SE 5.8 mph - N/A   Scattered Clouds
5:53 AM 69.1 °F - 63.0 °F 81% 30.09 in 10.0 mi SE 9.2 mph - N/A   Mostly Cloudy
6:53 AM 66.9 °F - 62.1 °F 84% 30.14 in 10.0 mi SSW 4.6 mph - N/A   Partly Cloudy
7:08 AM 66.2 °F - 62.6 °F 88% 30.15 in 9.0 mi Calm Calm - N/A   Mostly Cloudy
7:38 AM 68.0 °F - 62.6 °F 83% 30.15 in 9.0 mi SE 9.2 mph - N/A   Scattered Clouds
7:53 AM 68.0 °F - 62.1 °F 81% 30.15 in 9.0 mi SE 9.2 mph - N/A   Clear
8:53 AM 70.0 °F - 63.0 °F 78% 30.18 in 10.0 mi South 6.9 mph - N/A   Clear
9:53 AM 71.1 °F - 64.0 °F 78% 30.20 in 10.0 mi SSE 8.1 mph - N/A   Overcast
10:53 AM 75.9 °F - 64.9 °F 69% 30.17 in 10.0 mi SSE 10.4 mph - N/A   Clear
11:53 AM 80.1 °F 82.1 °F 66.0 °F 62% 30.13 in 10.0 mi South 15.0 mph 19.6 mph N/A   Partly Cloudy
12:53 PM 80.1 °F 82.3 °F 66.9 °F 64% 30.09 in 10.0 mi SSW 12.7 mph - N/A   Clear
1:53 PM 81.0 °F 83.3 °F 66.9 °F 62% 30.05 in 10.0 mi South 13.8 mph 20.7 mph N/A   Partly Cloudy
3:53 PM 80.1 °F 82.7 °F 68.0 °F 67% 30.00 in 10.0 mi South 9.2 mph - N/A   Clear
4:53 PM 79.0 °F - 68.0 °F 69% 29.98 in 9.0 mi South 10.4 mph - N/A   Clear
5:53 PM 77.0 °F - 68.0 °F 74% 29.98 in 8.0 mi South 6.9 mph - N/A   Clear
6:53 PM 73.9 °F - 68.0 °F 82% 29.98 in 9.0 mi South 3.5 mph - N/A   Scattered Clouds
7:53 PM 75.0 °F - 68.0 °F 79% 29.98 in 10.0 mi South 8.1 mph - N/A   Overcast
8:53 PM 75.0 °F - 69.1 °F 82% 29.98 in 10.0 mi SSE 9.2 mph - N/A   Overcast
9:53 PM 73.9 °F - 69.1 °F 85% 29.95 in 10.0 mi South 8.1 mph - 0.00 in   Overcast
10:05 PM 73.4 °F - 69.8 °F 88% 29.96 in 6.0 mi SSW 6.9 mph - 0.00 in Rain , Thunderstorm Light Rain
10:16 PM 73.4 °F - 69.8 °F 88% 29.99 in 1.8 mi West 10.4 mph - 0.16 in Rain , Thunderstorm Heavy Thunderstorms and Rain
10:25 PM 71.6 °F - 69.8 °F 94% 30.00 in 0.8 mi NW 10.4 mph - 0.46 in Rain , Thunderstorm Heavy Thunderstorms and Rain
10:28 PM 71.6 °F - 69.8 °F 94% 29.98 in 1.0 mi NNW 6.9 mph - 0.46 in Rain , Thunderstorm Heavy Thunderstorms and Rain
10:34 PM 71.6 °F - 71.6 °F 100% 29.96 in 3.0 mi NW 4.6 mph - 0.46 in Rain , Thunderstorm Light Rain
10:48 PM 73.4 °F - 69.8 °F 88% 29.97 in 4.0 mi South 6.9 mph - 0.48 in Rain Rain
10:53 PM 73.0 °F - 70.0 °F 90% 29.96 in 5.0 mi South 5.8 mph - 0.48 in Rain , Thunderstorm Light Rain
11:05 PM 71.6 °F - 69.8 °F 94% 29.98 in 1.8 mi Calm Calm - 0.09 in Rain , Thunderstorm Heavy Thunderstorms and Rain
11:17 PM 69.8 °F - 68.0 °F 94% 29.98 in 0.8 mi SSW 13.8 mph 23.0 mph 0.49 in Rain , Thunderstorm Heavy Thunderstorms and Rain
11:25 PM 69.8 °F - 68.0 °F 94% 29.97 in 1.0 mi SW 5.8 mph 19.6 mph 0.60 in Rain , Thunderstorm Heavy Thunderstorms and Rain
11:32 PM 71.6 °F - 68.0 °F 88% 29.96 in 3.0 mi WSW 6.9 mph - 0.60 in Rain , Thunderstorm Light Thunderstorms and Rain
11:39 PM 71.6 °F - 68.0 °F 88% 29.96 in 10.0 mi West 4.6 mph - 0.60 in Thunderstorm Thunderstorm
11:53 PM 70.0 °F - 68.0 °F 93% 29.96 in 10.0 mi SSW 3.5 mph - 0.60 in Thunderstorm Thunderstorm